Location: Aranbee
(34.0885°N, 118.2342°W)
Time: 11:25:51
(UTC+00:00)

S-56A Canister/Altair - Pass Details

Date: 04 August 2021
Orbit: 632 x 2500 km, 38.9° (Epoch: 18 September)

Event Time Altitude Azimuth Distance (km) Brightness Sun altitude
Rises 04:03:30 0° 293° (WNW) 6,175 14.0 -14.1°
Reaches altitude 10° 04:07:41 10° 290° (WNW) 5,161 13.0 -14.8°
Maximum altitude 04:21:56 54° 219° (SW) 2,582 10.1 -17.2°
Enters shadow 04:30:28 20° 152° (SSE) 3,483 10.3 -18.7°
